+ View the NASA Portal
+ Center for Near-Earth Object Studies
IMPORTANT:
The SSD Announcement email list is now available. Major changes are coming in the near future, including possible hostname and/or URL changes. To be notified of such changes, subscribe to this email list.
Please visit
this page
for more details.
Don't show this message again
JPL Small-Body Database Browser
Search:
[
help
]
249690 (2000 DP13)
Classification:
Main-belt Asteroid
SPK-ID:
2249690
[
Ephemeris
|
Orbit Diagram
|
Orbital Elements
|
Mission Design
|
Physical Parameters
|
Discovery Circumstances
]
[ show orbit diagram ]
Orbital Elements at Epoch 2458600.5 (2019-Apr-27.0) TDB
Reference:
JPL 12
(heliocentric ecliptic J2000)
Element
Value
Uncertainty (1-sigma)
Units
e
.06013544305379617
1.0482e-07
a
2.554458869068465
1.9882e-08
au
q
2.400845353214334
2.7063e-07
au
i
6.63129636218877
8.4991e-06
deg
node
331.3069079575119
4.4048e-05
deg
peri
182.4997022898958
6.4131e-05
deg
M
253.0940766115538
4.9142e-05
deg
t
p
2459043.339209130742
(2020-Jul-12.83920913)
0.00020604
TDB
period
1491.237437871441
4.08
1.741e-05
4.767e-08
d
yr
n
.2414102481988757
2.8184e-09
deg/d
Q
2.708072384922596
2.1077e-08
au
Orbit Determination Parameters
# obs. used (total)
247
data-arc span
7189 days (19.68 yr)
first obs. used
2000-02-28
last obs. used
2019-11-04
planetary ephem.
DE431
SB-pert. ephem.
SB431-N16
condition code
0
norm. resid. RMS
.5396
source
ORB
producer
Otto Matic
solution date
2019-Dec-04 18:48:43
Additional Information
Earth MOID
= 1.41139 au
Jupiter MOID
= 2.28267 au
T_jup
= 3.426
[ show covariance matrix ]
[
Ephemeris
|
Orbit Diagram
|
Orbital Elements
|
Mission Design
|
Physical Parameters
|
Discovery Circumstances
]
Physical Parameter Table
Parameter
Symbol
Value
Units
Sigma
Reference
Notes
absolute magnitude
H
16.6
n/a
MPO454851
249690 (2000 DP13)
Discovered 2000-Feb-28 by Spacewatch at Kitt Peak
Reference:
20100923/Numbers.arc
Last Updated:
2010-09-27
Alternate Designations
2000 DP13
= 2004 CF13
[
Ephemeris
|
Orbit Diagram
|
Orbital Elements
|
Mission Design
|
Physical Parameters
|
Discovery Circumstances
]
2019-Dec-12 01:13 UT
(server date/time)
Site Manager:
Ryan S. Park
Webmaster
:
Alan B. Chamberlin